星链-35503(STARLINK-35503)

导读 | 豆包AI

STARLINK-35503是美国SpaceX公司星链(Starlink)星座的一颗低轨通信卫星,于2025年10月29日发射入轨。星链星座旨在构建全球覆盖的卫星互联网,为全球提供高速宽带接入服务,该卫星运行在近地轨道,采用相控阵通信、氪离子霍尔推进、自主避碰等技术,属于星链星座扩容的组成部分,支撑星座全球化网络服务部署,助力实现全球无死角的互联网覆盖,服务个人消费、偏远地区网络接入等多类应用场景。

基本信息
目录编号:
66245
目录名称:
STARLINK-35503
国际标识:
2025-245M
轨道中心:
EARTH
卫星名称:
星链-35503
卫星全名:
星链-35503(STARLINK-35503)
卫星状态:
在轨 (已飞行208 天)
发射日期:
2025-10-29 UTC
国别 :
美国 (US)
星等 :
--
轨道信息
数据来源 国际轨道数据
星历时间: 2026-05-25T10:46:20+0800
10小时前
查看轨道信息
半长轴: 6853.333km
偏心率: 0.0001092
轨道倾角: 53.161°
近地点辐角 101.598°
升交点赤经 289.184°
平近点角 258.514°
近地点: 474.447km
远地点: 475.945km
周期: 94.105分钟
每日圈数: 15.302064
详细信息
固有亮度:
5
最大亮度:
2.5
卫星平台:
Starlink V1.0
覆盖范围:
全球
运营商:
太空探索技术公司
运营商所在国:
美国
制造商(研发单位):
太空探索技术公司
制造商所在国:
美国
使用方式:
暂无
卫星简介
Starlink 计划是 SpaceX 推出的全球卫星互联网项目,通过发射低轨道卫星,为全球尤其是偏远地区提供高速、低延迟的互联网服务。自 2019 年起,Starlink 已部署数千颗卫星,旨在缩小全球数字鸿沟,推动互联网普及。该项目还为军事、航空等行业提供通信支持,带来广泛经济效益。
2D轨道图
3D轨道图
轨道高度分析图
轨道倾角分析图
轨道综合分析图
查看轨道综合分析图